[[{"header":{"parameterUnit":"m.s-1","parameterCategory":1,"la1":30.2991,"la2":30.254,"lo1":-89.0895,"lo2":-89.0444,"dy":0.0017,"dx":0.0017,"nx":28,"ny":28,"refTime":"2025-12-18T09:00:00:Z","depth":0,"parameterNumber":2,"parameterNumberName":"U-component_of_WINDS"},"data":[0,0,0,0,0,0,0,0,0,0,0,0,0,0,0,0,0,0,0,0,0,0,0,0,0,0,0,0,0,0,0,0,0,0,0,0,0,0,0,0,0,0,0,0,0,0,0,0,0,0,0,0,0,0,0,0,0,0,-3.6306,-3.6307,0,-3.6399,-3.64,-3.6401,-3.6384,-3.6382,-3.6381,-3.6379,-3.6473,-3.6477,-3.6481,0,0,0,0,0,0,0,0,0,0,0,0,0,-3.6114,-3.6117,-3.6306,-3.6307,-3.6309,-3.6399,-3.64,-3.6401,-3.6384,-3.6382,-3.638,-3.6379,-3.6472,-3.6476,-3.6481,0,0,0,0,0,0,0,0,0,0,0,0,0,-3.6201,-3.6118,-3.6306,-3.6311,-3.6312,-3.6399,-3.64,-3.6402,-3.6385,-3.6382,-3.638,-3.6378,-3.647,-3.6476,-3.6482,-3.6569,0,0,-3.65,-3.6503,0,0,0,0,0,0,0,0,-3.6196,-3.6208,-3.6309,-3.6311,-3.6313,-3.6378,-3.6367,-3.6458,-3.6385,-3.6357,-3.6379,-3.6376,-3.6443,-3.6451,-3.6474,-3.6573,-3.6577,-3.6501,-3.6505,-3.6507,-3.6509,0,0,0,0,0,0,0,-3.619,-3.6204,-3.6343,-3.6311,-3.6313,-3.6308,-3.6318,-3.6384,-3.6413,-3.636,-3.6359,-3.637,-3.6444,-3.6468,-3.6476,-3.6578,-3.6501,-3.6506,-3.651,-3.6512,-3.6753,-3.6755,0,0,0,0,0,0,-3.6182,-3.6199,-3.634,-3.6346,-3.6247,-3.6314,-3.6325,-3.6359,-3.6412,-3.6418,-3.6372,-3.6369,-3.6459,-3.6469,-3.6479,-3.6583,-3.6507,-3.6513,-3.6516,-3.675,-3.6753,-3.6756,0,0,0,0,0,0,-3.6178,-3.6195,-3.6336,-3.6272,-3.629,-3.632,-3.6359,-3.6362,-3.6387,-3.6421,-3.6426,-3.6392,-3.6458,-3.6471,-3.6546,-3.6586,-3.6515,-3.6521,-3.6747,-3.6751,-3.6755,-3.6793,0,0,0,0,0,0,-3.6173,-3.6194,-3.6227,-3.6273,-3.6293,-3.6402,-3.6361,-3.6366,-3.6397,-3.6394,-3.6441,-3.6447,-3.6457,-3.6538,-3.6552,-3.6593,-3.6526,-3.6743,-3.6749,-3.6754,-3.6788,-3.6798,-3.6806,0,0,0,0,0,-3.6166,-3.6234,-3.6229,-3.6246,-3.6336,-3.6404,-3.6416,-3.6426,-3.6401,-3.6434,-3.6457,-3.6445,-3.658,-3.6545,-3.6562,-3.6605,-3.6741,-3.6747,-3.6753,-3.6784,-3.6796,-3.6806,0,0,0,0,0,0,-3.6191,-3.624,-3.6235,-3.632,-3.6358,-3.6401,-3.6444,-3.6439,-3.6484,-3.6479,-3.649,-3.6501,-3.6578,-3.66,-3.656,-3.6692,-3.6657,-3.6667,-3.6675,-3.6686,-3.6695,-3.6687,-3.6531,0,0,0,0,0,-3.6207,-3.6259,-3.6299,-3.637,-3.6389,-3.6414,-3.6444,-3.6449,-3.6489,-3.6505,-3.6532,-3.6571,-3.6623,-3.6656,-3.6705,-3.6792,-3.6801,-3.683,-3.6839,-3.6846,-3.6854,-3.6901,-3.6914,-3.6777,-3.6777,-3.6777,0,0,-3.6239,-3.6272,-3.6304,-3.6376,-3.6406,-3.6459,-3.6427,-3.6485,-3.6524,-3.6513,-3.6586,-3.6608,-3.6653,-3.6734,-3.6771,-3.6755,-3.6894,-3.6854,-3.686,-3.6864,-3.6909,-3.6922,-3.6933,-3.6781,-3.678,-3.678,0,0,-3.6325,-3.6356,-3.6418,-3.6449,-3.6496,-3.6512,-3.6527,-3.6571,-3.6586,-3.6659,-3.6652,-3.6699,-3.6787,-3.6819,-3.6846,-3.6946,-3.6936,-3.6961,-3.7007,-3.7053,-3.7064,-3.7073,-3.7107,-3.712,-3.697,-3.697,-3.697,0,-3.6359,-3.6439,-3.645,-3.6509,-3.654,-3.6534,-3.6596,-3.6626,-3.6686,-3.6708,-3.6689,-3.6799,-3.6829,-3.6917,-3.6941,-3.6965,-3.6981,-3.6955,-3.7062,-3.7071,-3.708,-3.7113,-3.7126,-3.6972,-3.6972,-3.6972,-3.6971,0,-3.6478,-3.6534,-3.6579,-3.6637,-3.6674,-3.6734,-3.6754,-3.679,-3.6792,-3.681,-3.6885,-3.6921,-3.6976,-3.6998,-3.7001,-3.7087,-3.7075,-3.7059,-3.7023,-3.7096,-3.7126,-3.7139,-3.6976,-3.6975,-3.6974,-3.6974,0,0,-3.658,-3.6645,-3.6661,-3.6687,-3.6739,-3.6782,-3.6843,-3.6898,-3.6928,-3.697,-3.702,-3.7095,-3.7081,-3.7112,-3.7119,-3.7159,-3.7234,-3.7138,-3.7139,-3.7153,-3.733,-3.7341,-3.7355,-3.7229,-3.7232,-3.7234,-3.7326,0,-3.6669,-3.6775,-3.6788,-3.6882,-3.6934,-3.6929,-3.6982,-3.7019,-3.7038,-3.7084,-3.7105,-3.7157,-3.7135,-3.7153,-3.7193,-3.7216,-3.7269,-3.721,-3.7275,-3.7277,-3.7262,-3.7371,-3.7382,-3.7467,-3.7338,-3.734,-3.7342,0,-3.6787,-3.6833,-3.6932,-3.6977,-3.6999,-3.7046,-3.7097,-3.7142,-3.7184,-3.7195,-3.7231,-3.7232,-3.7294,-3.7258,-3.7343,-3.7303,-3.733,-3.7346,-3.7349,-3.7354,-3.7312,-3.7377,-3.7495,-3.7507,-3.7361,-3.7359,-3.7358,0,-3.6849,-3.6936,-3.7007,-3.703,-3.7084,-3.7117,-3.7141,-3.7181,-3.7213,-3.7259,-3.728,-3.7332,-3.736,-3.74,-3.7415,-3.7388,-3.7499,-3.7464,-3.7509,-3.7509,-3.7531,-3.7529,-3.7653,-3.7552,-3.7552,-3.7552,-3.7551,0,-3.6946,-3.7006,-3.7035,-3.7078,-3.7147,-3.7161,-3.7228,-3.725,-3.7286,-3.7333,-3.7334,-3.7378,-3.7396,-3.7444,-3.7457,-3.7524,-3.7538,-3.7547,-3.7549,-3.7546,-3.7545,-3.7563,-3.7556,-3.7555,-3.7554,-3.7554,-3.7553,0,-3.7025,-3.7048,-3.7124,-3.717,-3.7183,-3.7231,-3.7269,-3.7311,-3.733,-3.739,-3.7405,-3.7435,-3.749,-3.751,-3.7578,-3.7587,-3.7665,-3.7663,-3.7651,-3.765,-3.7693,-3.7688,-3.7831,-3.785,-3.7739,-3.774,-3.7741,0,-3.7085,-3.7131,-3.7182,-3.7214,-3.724,-3.7291,-3.7324,-3.7341,-3.7375,-3.7428,-3.7463,-3.7519,-3.7564,-3.7653,-3.7681,-3.7733,-3.7731,-3.7778,-3.7738,-3.7733,-3.7729,-3.7725,-3.773,-3.7784,-3.7785,-3.7786,-3.7787,0,-3.7187,-3.7196,-3.7244,-3.7296,-3.7336,-3.7378,-3.7418,-3.7445,-3.7467,-3.7506,-3.7563,-3.7599,-3.7668,-3.7723,-3.7777,-3.7801,-3.7798,-3.78,-3.7812,-3.7808,-3.7798,-3.7802,-3.7668,-3.7795,-3.7795,-3.7794,-3.7794,-3.7793,-3.7257,-3.7298,-3.734,-3.7394,-3.7426,-3.7465,-3.7506,-3.7531,-3.7579,-3.7637,-3.7644,-3.7705,-3.7747,-3.7818,-3.7846,-3.7894,-3.7881,-3.7899,-3.7904,-3.7908,-3.791,-3.7792,-3.7904,-3.7903,-3.7903,-3.7903,-3.7903,0,-3.7357,-3.7385,-3.7434,-3.7491,-3.7533,-3.7528,-3.7573,-3.7608,-3.7662,-3.7702,-3.7747,-3.7812,-3.7866,-3.7898,-3.7952,-3.7984,-3.7984,-3.7998,-3.7994,-3.8,-3.7919,-3.7902,-3.7997,-3.7997,-3.7997,-3.7997,-3.7997,-3.7997,-3.7414,-3.7483,-3.7497,-3.7582,-3.7609,-3.7669,-3.7695,-3.7731,-3.7762,-3.7836,-3.788,-3.7901,-3.7938,-3.7995,-3.8044,-3.8052,-3.8071,-3.8085,-3.8092,-3.8015,-3.8005,-3.7996,-3.798,-3.809,-3.809,-3.8168,-3.8169,-3.8169]},{"header":{"parameterUnit":"m.s-1","parameterCategory":1,"la1":30.2991,"la2":30.254,"lo1":-89.0895,"lo2":-89.0444,"dy":0.0017,"dx":0.0017,"nx":28,"ny":28,"refTime":"2025-12-18T09:00:00:Z","depth":0,"parameterNumber":3,"parameterNumberName":"V-component_of_WINDS"},"data":[0,0,0,0,0,0,0,0,0,0,0,0,0,0,0,0,0,0,0,0,0,0,0,0,0,0,0,0,0,0,0,0,0,0,0,0,0,0,0,0,0,0,0,0,0,0,0,0,0,0,0,0,0,0,0,0,0,0,1.5821,1.5822,0,1.5937,1.5938,1.594,1.597,1.597,1.5969,1.5968,1.6087,1.6091,1.6095,0,0,0,0,0,0,0,0,0,0,0,0,0,1.5626,1.563,1.582,1.5822,1.5823,1.5937,1.5939,1.594,1.597,1.597,1.5969,1.5968,1.6086,1.6091,1.6095,0,0,0,0,0,0,0,0,0,0,0,0,0,1.5723,1.5631,1.582,1.5852,1.5856,1.5937,1.5939,1.5941,1.5971,1.597,1.5969,1.5968,1.6085,1.609,1.6096,1.6153,0,0,1.6114,1.6116,0,0,0,0,0,0,0,0,1.5718,1.5731,1.5846,1.585,1.5855,1.5938,1.5914,1.6012,1.5971,1.5927,1.5968,1.5967,1.6039,1.6048,1.6072,1.6158,1.6163,1.6114,1.6118,1.612,1.6122,0,0,0,0,0,0,0,1.5711,1.5726,1.5867,1.5848,1.5853,1.5862,1.5874,1.5932,1.5987,1.5931,1.5933,1.5947,1.6041,1.6067,1.6075,1.6165,1.6114,1.6119,1.6123,1.6125,1.6308,1.6309,0,0,0,0,0,0,1.5699,1.572,1.5863,1.587,1.5782,1.5866,1.588,1.5912,1.5987,1.5997,1.5948,1.5948,1.6057,1.6069,1.608,1.6154,1.612,1.6125,1.6129,1.6306,1.6308,1.631,0,0,0,0,0,0,1.5694,1.5711,1.5858,1.5796,1.5815,1.587,1.5907,1.5915,1.5941,1.6,1.601,1.5964,1.6057,1.6072,1.6135,1.6158,1.6128,1.6133,1.6305,1.6307,1.6309,1.6301,0,0,0,0,0,0,1.5689,1.5709,1.5731,1.5796,1.5818,1.5911,1.5908,1.5918,1.5951,1.5952,1.6017,1.6027,1.6057,1.6127,1.6141,1.6166,1.6138,1.6303,1.6306,1.6308,1.6299,1.6303,1.6305,0,0,0,0,0,1.5682,1.5723,1.5732,1.5749,1.5846,1.5912,1.5925,1.5959,1.5953,1.5976,1.6014,1.6025,1.6153,1.6133,1.6149,1.6176,1.6302,1.6305,1.6308,1.6298,1.6302,1.6305,0,0,0,0,0,0,1.5658,1.5732,1.5742,1.5806,1.5853,1.5917,1.5947,1.5961,1.6011,1.601,1.605,1.6064,1.6126,1.6157,1.6133,1.6237,1.6228,1.6234,1.6215,1.6219,1.6221,1.6213,1.6142,0,0,0,0,0,1.5661,1.5708,1.577,1.582,1.5843,1.5891,1.5921,1.5943,1.5993,1.6013,1.6056,1.6104,1.6156,1.6188,1.6239,1.6304,1.632,1.6331,1.6334,1.6336,1.6341,1.6382,1.6388,1.632,1.632,1.632,0,0,1.5666,1.5712,1.5739,1.5817,1.5855,1.5905,1.5907,1.5958,1.5996,1.6021,1.6085,1.6118,1.6174,1.624,1.6271,1.6268,1.6364,1.634,1.6341,1.6346,1.6386,1.6392,1.6398,1.6322,1.6322,1.6321,0,0,1.5701,1.5739,1.5787,1.5827,1.5886,1.5918,1.5929,1.5993,1.6016,1.6081,1.6102,1.6147,1.6234,1.6274,1.6306,1.636,1.6374,1.6375,1.6391,1.643,1.6435,1.644,1.6462,1.6469,1.6381,1.6381,1.6381,0,1.57,1.5774,1.5809,1.5861,1.5896,1.5922,1.5972,1.6008,1.608,1.6104,1.61,1.6212,1.6252,1.6329,1.6343,1.6367,1.6383,1.6369,1.6431,1.6437,1.6442,1.6464,1.6471,1.6381,1.6381,1.6381,1.6381,0,1.5771,1.5823,1.5855,1.5926,1.5964,1.6014,1.6058,1.6093,1.6112,1.6145,1.6212,1.6261,1.6324,1.6343,1.6362,1.6424,1.6421,1.6423,1.6415,1.6448,1.6469,1.6477,1.6381,1.6381,1.6381,1.6381,0,0,1.5794,1.5886,1.5897,1.5931,1.6,1.6041,1.6093,1.6155,1.6185,1.6235,1.6281,1.6356,1.636,1.6396,1.642,1.6454,1.6497,1.6453,1.6455,1.6462,1.6572,1.6572,1.6581,1.6506,1.6508,1.6509,1.6569,0,1.5839,1.5934,1.5969,1.6047,1.6097,1.6124,1.617,1.6218,1.6251,1.6299,1.6335,1.6388,1.6387,1.641,1.6445,1.6485,1.652,1.648,1.6552,1.6554,1.6539,1.6591,1.659,1.6644,1.6577,1.6578,1.6579,0,1.5905,1.5957,1.6041,1.6106,1.6129,1.6169,1.6231,1.6275,1.6331,1.6353,1.6395,1.6418,1.6475,1.6463,1.6544,1.6517,1.6548,1.6572,1.6575,1.6585,1.657,1.6604,1.6661,1.667,1.6592,1.6591,1.659,0,1.5916,1.6007,1.607,1.6098,1.6175,1.6204,1.6238,1.6293,1.6329,1.6382,1.6407,1.6465,1.6498,1.6544,1.6583,1.657,1.6662,1.6652,1.6684,1.6683,1.6703,1.6702,1.6768,1.6719,1.6719,1.6719,1.6719,0,1.5965,1.6015,1.6077,1.6116,1.6174,1.6214,1.6272,1.6307,1.6356,1.6403,1.6429,1.6473,1.6521,1.6571,1.6602,1.6666,1.668,1.6701,1.6709,1.67,1.6698,1.6722,1.672,1.6721,1.6721,1.672,1.672,0,1.5988,1.603,1.6101,1.617,1.6188,1.6229,1.6288,1.6327,1.6362,1.6422,1.6438,1.6493,1.6554,1.6597,1.6675,1.6696,1.6767,1.6773,1.6748,1.6753,1.6783,1.678,1.6869,1.6884,1.6823,1.6823,1.6824,0,1.6016,1.6056,1.613,1.6164,1.6198,1.6252,1.6289,1.6331,1.6369,1.6438,1.647,1.6533,1.6586,1.6683,1.673,1.6791,1.6801,1.6828,1.681,1.6801,1.6805,1.6803,1.6808,1.6831,1.6831,1.6831,1.6832,0,1.6064,1.6084,1.6137,1.6199,1.6244,1.6294,1.6345,1.6371,1.6422,1.6464,1.6528,1.6569,1.665,1.6714,1.678,1.6815,1.6833,1.6837,1.6848,1.684,1.6826,1.6837,1.6758,1.6835,1.6835,1.6834,1.6834,1.6834,1.6093,1.6131,1.619,1.6249,1.6292,1.634,1.6382,1.6422,1.6476,1.6546,1.6568,1.6634,1.6692,1.6783,1.682,1.6874,1.6872,1.6887,1.6892,1.6895,1.6897,1.6815,1.6885,1.6885,1.6885,1.6885,1.6885,0,1.6144,1.6184,1.6238,1.631,1.6357,1.637,1.6427,1.6467,1.6525,1.6578,1.663,1.6705,1.6767,1.682,1.6885,1.6918,1.6928,1.6934,1.6933,1.6942,1.6893,1.6878,1.6925,1.6925,1.6925,1.6925,1.6925,1.6925,1.6177,1.6243,1.6271,1.636,1.64,1.6466,1.6498,1.6543,1.6586,1.6668,1.6721,1.6755,1.6809,1.6879,1.6937,1.6951,1.6975,1.698,1.6996,1.6949,1.6945,1.6941,1.6927,1.6984,1.6984,1.7041,1.7042,1.7042]}]]